Waarnemingen

Advertentie
Mijn weer
Hemavan A, Zweden (2101): temperatuur & dauwpunt: 11.10.2018 22:00:00 - 17.10.2018 22:00:00 (CEST)Hemavan A, Zweden (2101): windsnelheid: 11.10.2018 22:00:00 - 17.10.2018 22:00:00 (CEST)Hemavan A, Zweden (2101): windrichting: 11.10.2018 22:00:00 - 17.10.2018 22:00:00 (CEST)Hemavan A, Zweden (2101): luchtdruk: 11.10.2018 22:00:00 - 17.10.2018 22:00:00 (CEST)Hemavan A, Zweden (2101): zicht: 11.10.2018 22:00:00 - 17.10.2018 22:00:00 (CEST)
Datum & Tijd tt [°C] td [°C] ff [km/u] ff [kn] dd ppp [hPa] vv [km]
17.10.2018 22:00:00 5,1 4,2 11 6 ZZO 1008,5 50
17.10.2018 21:00:00 5,2 4,2 7 4 ZO 1008,1 50
17.10.2018 20:00:00 4,9 4,0 4 2 OZO 1008,0 50
17.10.2018 19:00:00 4,8 3,5 7 4 OZO 1008,0 45
17.10.2018 18:00:00 4,9 2,9 7 4 OZO 1007,9 50
17.10.2018 17:00:00 4,9 3,4 11 6 ZO 1008,1 50
17.10.2018 16:00:00 5,7 3,4 0 0 N 1008,2 45
17.10.2018 15:00:00 5,5 3,5 11 6 ZZO 1008,4 50
17.10.2018 14:00:00 5,3 2,8 11 6 Z 1008,5 50
17.10.2018 13:00:00 5,1 3,4 4 2 ZO 1008,6 29
17.10.2018 12:00:00 5,1 2,3 14 8 Z 1009,2 50
17.10.2018 11:00:00 5,1 2,1 7 4 ZZO 1009,2 50
17.10.2018 10:00:00 4,6 2,3 18 10 ZZO 1008,9 45
17.10.2018 09:00:00 4,5 1,9 7 4 ZZO 1008,8 50
17.10.2018 08:00:00 4,1 1,5 4 2 OZO 1009,1 50
17.10.2018 07:00:00 4,8 1,5 14 8 ZZO 1009,7 50
17.10.2018 06:00:00 4,9 1,2 14 8 Z 1009,7 50
17.10.2018 05:00:00 5,1 0,8 11 6 Z 1009,8 50
17.10.2018 04:00:00 5,8 -0,3 4 2 W 1010,5 50
17.10.2018 03:00:00 6,0 -0,5 0 0 N 1010,8 50
17.10.2018 02:00:00 5,9 0,0 7 4 Z 1011,6 50
17.10.2018 01:00:00 5,7 0,9 7 4 ZZO 1012,3 50
17.10.2018 00:00:00 5,1 1,0 4 2 ZO 1013,1 50
16.10.2018 23:00:00 5,7 1,2 11 6 ZZW 1013,9 50
16.10.2018 22:00:00 5,3 1,8 7 4 ZZO 1014,4 50
16.10.2018 21:00:00 5,1 1,9 7 4 Z 1015,1 50
16.10.2018 20:00:00 4,7 1,0 7 4 OZO 1016,3 45
16.10.2018 19:00:00 4,8 1,1 7 4 OZO 1016,1 50
16.10.2018 18:00:00 4,7 2,2 0 0 N 1016,6 45
16.10.2018 17:00:00 4,9 2,4 0 0 N 1016,7 40
16.10.2018 16:00:00 5,3 2,3 0 0 N 1016,5 50
16.10.2018 15:00:00 5,5 2,5 0 0 N 1016,4 27
16.10.2018 14:00:00 5,5 2,1 4 2 O 1016,4 45
16.10.2018 13:00:00 4,9 1,9 4 2 WNW 1016,2 50
16.10.2018 12:00:00 4,7 1,7 0 0 N 1016,2 50
16.10.2018 11:00:00 4,1 2,5 4 2 ZZW 1015,9 40
16.10.2018 10:00:00 2,3 1,4 0 0 N 1015,6 50
16.10.2018 09:00:00 2,2 1,6 0 0 N 1015,2 22
16.10.2018 08:00:00 1,0 0,7 0 0 N 1014,8 24
16.10.2018 07:00:00 0,3 0,0 0 0 N 1014,7 9
16.10.2018 06:00:00 0,5 -0,1 0 0 N 1014,3 9
16.10.2018 05:00:00 -0,3 -0,4 0 0 N 1014,1 50
16.10.2018 04:00:00 -2,1 -2,2 0 0 N 1014,4 40
16.10.2018 03:00:00 -2,1 -2,2 0 0 N 1014,4 9
16.10.2018 02:00:00 -1,9 -2,0 0 0 N 1014,4 50
16.10.2018 01:00:00 -2,3 -2,4 0 0 N 1014,4 35
16.10.2018 00:00:00 -1,5 -1,6 0 0 N 1014,2 50
15.10.2018 23:00:00 -0,5 -0,6 0 0 N 1014,0 50
15.10.2018 22:00:00 1,0 0,4 0 0 N 1013,6 50
15.10.2018 21:00:00 1,7 0,8 4 2 ZW 1013,8 50
15.10.2018 20:00:00 2,7 1,2 0 0 N 1013,7 50
15.10.2018 19:00:00 3,3 1,5 0 0 N 1013,9 50
15.10.2018 18:00:00 3,9 1,6 0 0 N 1013,5 50
15.10.2018 17:00:00 5,2 1,1 0 0 N 1013,5 50
15.10.2018 16:00:00 5,9 1,2 0 0 N 1013,4 50
15.10.2018 15:00:00 6,4 1,1 0 0 N 1013,0 50
15.10.2018 14:00:00 6,3 1,2 0 0 N 1013,0 45
15.10.2018 13:00:00 5,8 0,9 0 0 N 1013,1 40
15.10.2018 12:00:00 5,1 1,9 0 0 N 1013,1 50
15.10.2018 11:00:00 4,7 1,7 11 6 NW 1012,7 50
15.10.2018 10:00:00 4,4 2,4 4 2 WNW 1011,9 50
15.10.2018 09:00:00 4,1 2,1 4 2 N 1011,3 50
15.10.2018 08:00:00 4,0 1,9 7 4 NW 1010,1 50
15.10.2018 07:00:00 4,3 1,8 18 10 W 1008,8 50
15.10.2018 06:00:00 4,5 2,4 22 12 WNW 1008,1 50
15.10.2018 05:00:00 5,2 3,2 14 8 NW 1007,2 50
15.10.2018 04:00:00 6,2 4,5 14 8 NW 1005,9 21
15.10.2018 03:00:00 7,0 5,5 7 4 N 1004,3 50
15.10.2018 02:00:00 7,4 5,9 14 8 W 1003,4 5
15.10.2018 01:00:00 8,1 7,0 4 2 N 1002,5 35
15.10.2018 00:00:00 8,7 7,3 4 2 N 1002,1 12
14.10.2018 23:00:00 9,9 7,5 4 2 NNO 1002,0 23
14.10.2018 22:00:00 9,5 8,7 0 0 N 1001,9 50
14.10.2018 21:00:00 10,0 9,2 4 2 N 1002,1 9
14.10.2018 20:00:00 10,8 9,7 11 6 NW 1001,8 3,2
14.10.2018 19:00:00 14,7 9,5 14 8 ZW 1000,0 50
14.10.2018 18:00:00 16,7 10,1 18 10 ZZO 999,1 45
14.10.2018 17:00:00 17,3 10,2 18 10 Z 999,3 50
14.10.2018 16:00:00 17,3 10,9 18 10 Z 999,6 50
14.10.2018 15:00:00 16,6 10,7 14 8 Z 999,9 50
14.10.2018 14:00:00 16,0 10,5 22 12 ZZO 1000,7 50
14.10.2018 13:00:00 15,5 10,7 14 8 Z 1001,1 50
14.10.2018 12:00:00 14,0 11,3 0 0 N 1001,9 50
14.10.2018 11:00:00 15,1 10,9 7 4 ZZO 1001,5 45
14.10.2018 10:00:00 12,3 10,9 7 4 O 1001,8 50
14.10.2018 09:00:00 5,8 5,7 4 2 NW 1003,0 50
14.10.2018 08:00:00 5,2 5,1 0 0 N 1003,4 18
14.10.2018 07:00:00 5,7 5,6 4 2 NO 1003,8 50
14.10.2018 06:00:00 6,4 6,3 0 0 N 1004,3 50
14.10.2018 05:00:00 6,4 6,3 0 0 N 1005,1 50
14.10.2018 04:00:00 6,5 6,4 4 2 N 1005,1 40
14.10.2018 03:00:00 6,3 6,2 0 0 N 1005,1 9
14.10.2018 02:00:00 6,3 6,2 0 0 N 1005,3 11
14.10.2018 01:00:00 6,2 6,1 0 0 N 1005,9 2,9
14.10.2018 00:00:00 6,3 6,2 0 0 N 1006,6 3,0
13.10.2018 23:00:00 6,5 6,2 0 0 N 1006,8 3,0
13.10.2018 22:00:00 6,8 6,4 0 0 N 1007,5 5
13.10.2018 21:00:00 7,1 6,7 0 0 N 1008,2 5
13.10.2018 20:00:00 7,6 6,5 0 0 N 1008,8 8
13.10.2018 19:00:00 8,3 6,4 0 0 N 1008,7 30
13.10.2018 18:00:00 8,8 6,9 0 0 N 1008,5 40
13.10.2018 17:00:00 9,5 6,8 7 4 NW 1008,0 25
13.10.2018 16:00:00 11,8 7,7 4 2 OZO 1007,0 50
13.10.2018 15:00:00 12,0 7,7 0 0 N 1006,9 50
13.10.2018 14:00:00 11,4 7,3 0 0 N 1007,1 45
13.10.2018 13:00:00 10,8 7,1 0 0 N 1006,9 50
13.10.2018 12:00:00 9,8 6,5 0 0 N 1006,9 40
13.10.2018 11:00:00 9,0 6,3 11 6 ZZO 1006,7 35
13.10.2018 10:00:00 8,2 5,8 7 4 OZO 1006,8 40
13.10.2018 09:00:00 8,2 5,7 7 4 OZO 1006,9 35
13.10.2018 08:00:00 7,7 5,3 18 10 ZZO 1006,7 30
13.10.2018 07:00:00 6,8 5,3 7 4 ZO 1007,3 30
13.10.2018 06:00:00 7,5 5,5 11 6 ZZO 1007,5 25
13.10.2018 05:00:00 7,8 5,8 14 8 Z 1008,0 26
13.10.2018 04:00:00 7,2 5,3 11 6 Z 1008,7 35
13.10.2018 03:00:00 6,2 4,8 7 4 ZO 1009,1 45
13.10.2018 02:00:00 5,4 4,0 11 6 ZZO 1010,8 40
13.10.2018 01:00:00 5,0 3,7 18 10 ZZO 1011,4 45
13.10.2018 00:00:00 5,3 4,0 14 8 Z 1013,3 45
12.10.2018 23:00:00 5,0 3,3 11 6 O 1012,8 45
12.10.2018 22:00:00 5,9 4,2 11 6 ZO 1013,3 35
12.10.2018 21:00:00 6,3 4,1 18 10 Z 1014,2 40
12.10.2018 20:00:00 6,4 4,2 18 10 Z 1015,4 45
12.10.2018 19:00:00 6,1 3,8 11 6 ZO 1014,1 45
12.10.2018 18:00:00 5,0 2,5 11 6 Z 1014,8 50
12.10.2018 17:00:00 5,6 3,4 4 2 Z 1015,1 50
12.10.2018 16:00:00 5,7 3,5 11 6 ZZO 1015,9 50
12.10.2018 15:00:00 6,4 3,7 25 14 ZZO 1016,3 45
12.10.2018 14:00:00 6,6 3,9 22 12 ZZO 1016,6 50
12.10.2018 13:00:00 6,5 3,8 22 12 Z 1017,0 45
12.10.2018 12:00:00 6,2 4,0 4 2 ONO 1017,6 50
12.10.2018 11:00:00 5,8 4,1 4 2 O 1017,8 50
12.10.2018 10:00:00 4,7 4,0 7 4 O 1018,2 50
12.10.2018 09:00:00 4,7 4,1 0 0 N 1018,7 50
12.10.2018 08:00:00 4,4 4,0 4 2 O 1018,4 50
12.10.2018 07:00:00 4,9 4,6 4 2 NO 1018,2 50
12.10.2018 06:00:00 5,2 5,1 4 2 O 1018,2 50
12.10.2018 05:00:00 5,3 5,2 0 0 N 1018,2 50
12.10.2018 04:00:00 5,2 5,1 4 2 NNO 1018,5 50
12.10.2018 03:00:00 4,6 4,5 0 0 N 1018,9 50
12.10.2018 02:00:00 3,5 3,4 0 0 N 1019,5 50
12.10.2018 01:00:00 2,1 2,0 4 2 NW 1019,9 12
12.10.2018 00:00:00 2,1 2,0 4 2 NNW 1020,9 11
11.10.2018 23:00:00 1,0 0,9 0 0 N 1021,0 10
11.10.2018 22:00:00 0,8 0,7 4 2 WNW 1021,1 13

tt = temperatuur
td = dauwpunt
ff = windsnelheid
dd = windrichting
ppp = luchtdruk
vv = zicht

Weerstations in de omgeving